Regional Weather Roundup
Issued by NWS

Home | Current Version | Previous Version | Graphics & Text | Print | Product List | Glossary On
Versions: 1 2 3 4 5 6 7 8 9 10 11 12 13 14 15 16 17 18 19 20 21 22 23 24 25 26 27 28 29 30 31 32 33 34 35 36 37 38 39 40 41 42 43 44 45 46 47 48 49 50
000
ASUS43 KBIS 280401
RWRND

NORTH DAKOTA REGIONAL WEATHER ROUNDUP
NATIONAL WEATHER SERVICE BISMARCK ND
1000 PM CST FRI FEB 27 2015

NOTE: "FAIR" INDICATES FEW OR NO CLOUDS BELOW 12,000 FEET WITH NO
SIGNIFICANT WEATHER AND/OR OBSTRUCTIONS TO VISIBILITY.


NDZ001>003-009>011-017-280500-
NORTHWEST NORTH DAKOTA

CITY           SKY/WX    TMP DP  RH WIND       PRES   REMARKS
WILLISTON      CLOUDY    19   9  65 NW3       30.05S
MINOT          MOCLDY    10   2  69 SE6       30.12S WCI   0
$$

NDZ018>021-031>035-040>046-280500-
SOUTHWEST NORTH DAKOTA

CITY           SKY/WX    TMP DP  RH WIND       PRES   REMARKS
BISMARCK       PTCLDY    11   2  67 S12       30.20S WCI  -3
DICKINSON      PTCLDY    13   5  70 SE12      30.01F WCI  -1
GARRISON         N/A      8   1  73 SE10      30.12F WCI  -6
HETTINGER ARPT PTCLDY    15   4  61 SE9       30.04S WCI   3
$$

NDZ004>008-012>016-024-026-027-054-280500-
NORTHEAST NORTH DAKOTA

CITY           SKY/WX    TMP DP  RH WIND       PRES   REMARKS
GRAND FORKS    FAIR       3  -4  72 S12       30.34S WCI -13
GRND FRKS AFB  FAIR       7  -1  68 SW12      30.33S WCI  -8
DEVILS LAKE    PTCLDY     9   0  66 S14       30.24S WCI  -8
$$

NDZ022-023-025-028>030-036>039-047>053-280500-
SOUTHEAST NORTH DAKOTA

CITY           SKY/WX    TMP DP  RH WIND       PRES   REMARKS
FARGO          CLEAR      9  -2  61 S12       30.38S WCI  -6
JAMESTOWN      PTCLDY     2  -3  80 S13       30.26F WCI -15
$$




USA.gov is the U.S. government's official web portal to all federal, state and local government web resources and services.